Regional Weather Roundup
Issued by NWS Wakefield, VA

Current Version | Previous Version | Text Only | Print | Product List | Glossary On
Versions: 1 2 3 4 5 6 7 8 9 10 11 12 13 14 15 16 17 18 19 20 21 22 23 24 25 26 27 28 29 30 31 32 33 34 35 36 37 38 39 40 41 42 43 44 45 46 47 48 49 50
194
ASUS41 KAKQ 291215
RWRAKQ

REGIONAL WEATHER ROUNDUP
NATIONAL WEATHER SERVICE WAKEFIELD VA
800 AM EDT FRI JUL 29 2016

Note: "fair" indicates few or no clouds below 12,000 feet with no
significant weather and/or obstructions to visibility. * = Denotes
station may not report precipitation (e.g., rain,snow,etc.),
thunder or fog.

VAZ042-051-052>054-056-291300-
NORTHERN VIRGINIA

CITY           SKY/WX    TMP DP  RH WIND       PRES   REMARKS
WASH NATIONAL  CLOUDY    75  71  87 N13       29.87R
DULLES         CLOUDY    73  71  93 NW8       29.89R
FORT BELVOIR   PTSUNNY   75  71  86 NW6       29.87R
QUANTICO       PTSUNNY   75  71  87 N12       29.87S
FREDERICKSBRG* CLOUDY    73  73 100 NW7       29.87R
STAFFORD*      CLOUDY    73  70  92 NW7       29.91S
WARRENTON      CLOUDY    74  67  79 NW5       29.89R
CULPEPER*      CLOUDY    73  71  95 CALM      29.91R
MANASSAS*      CLOUDY    73  73 100 N8        29.88R
LEESBURG*      CLOUDY    73  73 100 NW8       29.90S
WINCHESTER     CLOUDY    70  68  94 NW6       29.92R
FRONT ROYAL*   FAIR      70  70 100 CALM      29.91R
LURAY*         NOT AVBL
$$

VAZ048-049-060>072-079>083-291300-
CENTRAL AND SOUTH CENTRAL VIRGINIA

CITY           SKY/WX    TMP DP  RH WIND       PRES   REMARKS
RICHMOND       CLOUDY    75  72  90 NW10      29.86R
CHESTERFIELD*  CLOUDY    75  63  64 N8        29.88R
PETERSBURG*    CLOUDY    76  76 100 NW7       29.87R
HANOVER        CLOUDY    74  71  91 VRB5      29.88R
TAPPAHANNOCK*  CLOUDY    76  76 100 E5        29.85S
QUINTON*       CLOUDY    74  74  98 W5        29.85R
CHARLOTTSVILLE FAIR      74  69  85 NW3       29.89R
GORDONSVILLE*  CLOUDY    73  73  99 CALM      29.89R
ORANGE*          N/A     73  73 100 CALM      29.91R
LOUISA*        RAIN      77  75  94 N5        29.89R
BUMPASS*       CLOUDY    72  71  98 N3        29.88R
FARMVILLE*     PTSUNNY  N/A N/A N/A N5        29.87R
CREWE*         NOT AVBL
FORT PICKETT*  CLOUDY    74  74  98 NW8       29.88R
CHASE CITY*    FAIR      76  74  94 NW6       29.88R
CLARKSVILLE*   PTSUNNY   77  73  88 W5        29.88R
SOUTH HILL*    FAIR      76  73  88 W5        29.93R
LAWRENCEVILLE* FAIR      76  73  92 NW5       29.87R
EMPORIA*       FAIR      77  72  83 W6        29.87R
$$

VAZ088>098-291300-
SOUTHEAST VIRGINIA

CITY           SKY/WX    TMP DP  RH WIND       PRES   REMARKS
NORFOLK        FAIR      82  72  71 W10       29.83R
VIRGINIA BEACH FAIR      87  71  58 W12       29.82R
NORFOLK NAVAL  FAIR      83  72  69 W12       29.85R
WEST POINT*    CLOUDY    76  74  95 NW5       29.86R
SALUDA*        CLOUDY    76  76  99 W8        29.83R
NEWPORT NEWS   PTSUNNY   80  75  84 W13       29.84R
LANGLEY AFB    MOSUNNY   81  74  79 W14       29.83R
FORT EUSTIS    CLOUDY    79  75  87 W8        29.83R
WILLIAMSBURG*  FAIR      81  75  83 NW12      29.85R
HR EXEC AP*    FAIR      81  73  78 W7        29.86R
FRANKLIN*      FAIR      79  72  78 SW5       29.85R
US460-WAKEFLD  CLOUDY    77  73  87 W5        29.85R
$$

VAZ020-022-025-037-045-291300-
WEST CENTRAL AND SOUTHWEST VIRGINIA

CITY           SKY/WX    TMP DP  RH WIND       PRES   REMARKS
STAUNTON*      FAIR      70  68  91 CALM      29.96R
WAYNESBORO*    FAIR      71  68  92 NW7       29.95R
HOT SPRINGS VA DRZL/FOG  64  64 100 NW10      30.04  VSB<1/4
LYNCHBURG      FAIR      74  70  87 CALM      29.92R
DANVILLE       FAIR      77  69  76 W8        29.90R
SOUTH BOSTON*  FAIR     N/A N/A N/A CALM      29.88R
MARTINSVILLE   FAIR      75  66  74 NW6       29.96R
ROANOKE        FAIR      73  67  81 W7        29.96R
BLACKSBURG     CLOUDY    69  67  93 W3        30.04R
DUBLIN*        FAIR      71  66  84 W9        30.03R
MARION*        CLOUDY    69  67  95 W7        30.08R
HILLSVILLE*    FAIR      67  66  96 NW12      30.03S
RICHLANDS*     CLOUDY    67  67 100 CALM      30.07S
WISE*          CLOUDY    68  66  94 W3        30.08S
ABINGDON*      CLOUDY    70  69  96 SW3       30.06R
$$

MDZ021>025-VAZ099-100-291300-
SOUTHERN MARYLAND AND THE DELMARVA PENINSULA

CITY           SKY/WX    TMP DP  RH WIND       PRES   REMARKS
PATUXENT RIVER CLOUDY    75  72  90 N10       29.83R
BAY BRIDGE APT CLOUDY    73  72  94 N8        29.84R
LEONARDTOWN    CLOUDY    73  72  94 NW3       29.85R
DOVER          CLOUDY    73  73 100 NW15      29.80R
GEORGETOWN     CLOUDY    75  74  96 W3        29.81S
EASTON         CLOUDY    75  75 100 N5        29.86R FOG
CAMBRIDGE      CLOUDY    73  73 100 CALM      29.81R
SALISBURY      NOT AVBL
OCEAN CITY       N/A    N/A N/A N/A MISG      29.80R
WALLOPS ISLAND CLOUDY    77  75  93 N8        29.81S
ACCOMACK*      CLOUDY    81  75  83 W6        29.82R
$$

NCZ012>017-030>032-291300-
NORTH CENTRAL AND EASTERN NORTH CAROLINA

CITY           SKY/WX    TMP DP  RH WIND       PRES   REMARKS
ROANOKE RAPIDS FAIR      77  72  83 SW6       29.86R
RALEIGH        MOSUNNY   79  71  76 W7        29.89R
ELIZABETH CITY SUNNY     84  72  67 SW13G22   29.85R
AHOSKIE*       SUNNY     79  73  83 CALM      29.86R
EDENTON*       SUNNY     84  72  66 W12G18    29.87R
CURRITUCK*     SUNNY     82  73  73 SW9       29.85R
KILL DEVIL HLS SUNNY     84  74  71 SW7       29.85R
MANTEO           N/A     82  76  81 W12       29.87R
CAPE HATTERAS  SUNNY     82  77  84 SW9       29.89R
TARBORO*       FAIR      81  72  75 SW6       29.88R
GOLDSBORO      SUNNY     82  74  75 SW12      29.87R
WASHINGTON     SUNNY     81  74  81 SW10      29.88R
GREENVILLE     SUNNY     81  73  78 SW8       29.90R HAZE
NEW BERN       SUNNY     82  74  76 W8        29.90S
WILMINGTON     SUNNY     83  74  74 SW12      29.92S
$$

VAZ048-291300-
ELSEWHERE

CITY           SKY/WX    TMP DP  RH WIND       PRES   REMARKS
HARRISBURG PA  MOSUNNY   73  72  96 NW7       29.87R
BALTIMORE      CLOUDY    73  70  90 N6        29.86R
ANNAPOLIS      CLOUDY    75  72  90 N8        29.85R
ANDREWS AFB    PTSUNNY   73  71  92 N12       29.86R
PHILADELPHIA   CLOUDY    73  71  93 N12       29.84R
GREENSBORO     MOSUNNY   77  68  73 NW12      29.93R
ROCKY MOUNT    SUNNY     80  73  79 SW7       29.87R
$$

VAZ100-291300-
MARINE

STATION/POSITION TIME  TEMP    WIND        PRES    WAVE   SWELL
                       AIR SEA DIR/SP/G            HT/PER HT/PER
                 (UTC) (F)     (DEG/KT/KT) (MB)    (FT/S) (FT/S)
BRANDYWINE LGT   1100   72     210/  8/  9   N/A
CAPE MAY NJ      1100   74 72  100/  4/  5 1007.9F
LEWES DE         1100   74 73  290/  2/  2 1008.5R
OCEAN-CITY-INLET 1100   74 71   10/  2/  2 1009.3R
WACHAPREAGUE VA  1100   78 84  270/  4/  5 1008.9R
THOMAS POINT MD  1200   74 83  360/ 17/ 20 1011.9R
GOOSES REEF MD   1100   78 85  350/ 17/ 21 1010.5R   1/ 7
COVE POINT MD    1100   76     330/  9/ 12 1009.9R
SOLOMONS ISLAND  1100   77 85  310/  5/  7   N/A
BISHOPS HEAD MD  1100   79     310/  9/ 12 1009.5R
PINEY POINT MD   1100          360/ 12/ 13   N/A
POTOMAC MD       1100   79 85  290/ 12/ 14 1008.3R   2/ 2
CAMBRIDGE MD     1100   75 87  160/  1/  1 1008.3R
LEWISETTA VA     1100   77 86  290/  7/  8 1009.1R
RAPPAHANNOCK LGT 1100          280/ 20/ 21 1009.7R
STINGRAY PT      1100   79 85  250/ 14/ 17 1009.6R   1/ 2
YORK RVR RNG VA  1100   81     270/ 15/ 18 1008.7R
YORKTOWN VA      1100   79 85  260/  6/  9 1009.1R
JAMESTOWN VA     1100   78 89  260/  8/ 10   N/A     0
DOMINION TERM VA 1100   80     270/ 13/ 17 1009.6R
KIPTOPEKE VA     1100      80  270/ 15/ 18   N/A
CHES BAY BRIDGE  1100   81 81  230/ 17/ 19 1009.1R
CAPE HENRY VA    1100   81     240/ 11/ 15   N/A
WILLOUBY STN VA  1100   81     260/ 15/ 17   N/A
CAPE HENRY BUOY  1112      76                N/A     2/ 4
1ST LANDING BUOY 1100   82 80  260/ 16/ 19 1008.9R   2/ 3
CAPE CHARLES BUO 1126      76                N/A     2/ 4
OFFSHORE WE BUOY 1121      82                N/A     3/ 5
64NM E OF VA BCH 1150   83 82  220/ 14/ 16 1009.9R   3/ 4   2/ 8
DUCK PIER NC     1100   83 66  230/ 14/ 19 1009.9R
44100 DUCK FRF   1105      80                N/A     2/ 3
44056 DUCK FRF   1111      72                N/A     1/ 7
OREGON INLET NC  1100   83 84  230/ 14/ 18 1010.9R
HATTERAS NC      1100   81 83  230/  8/ 11 1011.6R
DIAMOND SHLS NC  1150   84 85  240/ 16/ 19 1012.2R   4/ 6   2/ 8
CAPE LOOKOUT NC  1200   84     250/ 12/ 16 1012.6R
$$




USA.gov is the U.S. government's official web portal to all federal, state and local government web resources and services.